Regional Weather Roundup
Issued by NWS Northern Indiana

Home | Current Version | Previous Version | Text Only | Print | Product List | Glossary On
Versions: 1 2 3 4 5 6 7 8 9 10 11 12 13 14 15 16 17 18 19 20 21 22 23 24 25 26 27 28 29 30 31 32 33 34 35 36 37 38 39 40 41 42 43 44 45 46 47 48 49 50
544
ASUS43 KIWX 250710
RWRIWX

KIWX WEATHER ROUNDUP
NATIONAL WEATHER SERVICE NORTHERN INDIANA
300 AM EDT FRI MAY 25 2018

NOTE: "FAIR" INDICATES FEW OR NO CLOUDS BELOW 12,000 FEET WITH NO
SIGNIFICANT WEATHER AND/OR OBSTRUCTIONS TO VISIBILITY.

* THESE STATIONS ARE NOT UNDER NWS QUALITY CONTROL. THEY ALSO MAY NOT
  REPORT WEATHER SUCH AS PRECIPITATION OR FOG.

INZ001>027-250800-
NORTHERN INDIANA

CITY           SKY/WX    TMP DP  RH WIND       PRES   REMARKS
GARY*          FAIR      62  54  73 S3        30.02F
VALPARAISO     FAIR      68  49  50 CALM      30.04F
LAPORTE*       FAIR      62  53  71 CALM      30.04F
KNOX*          FAIR      61  50  67 CALM      30.03F
SOUTH BEND     FAIR      60  52  74 CALM      30.04F
GOSHEN         FAIR      58  54  86 CALM      30.04F
ROCHESTER*     FAIR      61  54  77 CALM      30.05F
WARSAW*        FAIR      55  54  94 CALM      30.06S
AUBURN*        FAIR      54  52  94 CALM      30.07F
FORT WAYNE     FAIR      62  52  69 S3        30.06F
PERU/GRISSOM   FAIR      62  52  71 SE3       30.04F
MARION*        FAIR      59  53  78 CALM      30.07F

$$
INZ028>050-250800-
CENTRAL INDIANA

CITY           SKY/WX    TMP DP  RH WIND       PRES   REMARKS
LAFAYETTE      FAIR      58  52  80 CALM      30.03F
KOKOMO*        FAIR      63  52  67 CALM      30.06F
MUNCIE*        FAIR      60  53  77 CALM      30.07S
INDIANAPOLIS   FAIR      67  53  61 CALM      30.05F

$$
MIZ043>046-050>051-056>058-064>065-071>073-077>080-250800-
SOUTHWEST LOWER MICHIGAN

CITY           SKY/WX    TMP DP  RH WIND       PRES   REMARKS
BATTLE CREEK   FAIR      60  52  74 S3        30.04F
BENTON HARBOR  FAIR      65  50  58 S5        30.01F
COLDWATER*     FAIR      61  52  73 CALM      30.06F
HILLSDALE*     FAIR      55  48  76 S3        30.06F
HOLLAND        FAIR      62  53  72 S6        30.01F
GRAND RAPIDS   FAIR      61  55  81 S6        30.02F
KALAMAZOO      FAIR      63  52  67 S3        30.04F
STURGIS*       FAIR      59  53  78 CALM      30.04F
THREE RIVERS*  FAIR      58  55  92 CALM      30.04F

$$
OHZ001>008-015>018-024>025-250800-
NORTHWEST OHIO

CITY           SKY/WX    TMP DP  RH WIND       PRES   REMARKS
DEFIANCE       FAIR      57  53  86 CALM      30.06F
FINDLAY        FAIR      60  53  77 CALM      30.06F
TOLEDO EXPRESS FAIR      58  54  86 CALM      30.05F
TOLEDO METCALF FAIR      62  49  62 SE3       30.06F
LIMA           FAIR      59  51  75 CALM      30.07F

$$
AND FOR LAKE MICHIGAN COASTAL AND OPEN LAKE BUOY OBSERVATIONS

STATION/POSITION TEMP    WIND        PRES    VSBY  WAVE
                 AIR SEA DIR/SP/G                  HT/PER
                 (F)     (DEG/KT/KT) (MB)    (MI)  (FT/S)
CALUMET HARBOR           170/  5/  7 1015.8F
MICHIGAN CITY     72     140/ 11/ 14   N/A
BURNS HARBOR      70     180/  4/  8 1016.9F
SAINT JOSEPH      69     150/  3/  6 1016.9
SOUTH LAKE BUOY   51 39  170/ 10/ 10 1016.1F         0
4 MI NW BRIDGMAN  62 57  200/  4/  6 1016.5F         0
MICHIGAN CITY     64 60  190/  4/  4   N/A           0

$$
&&




USA.gov is the U.S. government's official web portal to all federal, state and local government web resources and services.